RH
64 72 78 79 79 87 96 99 100 102 103 102 100 97 94 96 96 84 70 52 35 29 28 25 23 22 22 23 24 26 27 28 31 35 40 44 44 46 47 45 42 36
83 91 95 95 93 95 100 101 103 104 103 101 99 96 94 98 96 80 64 50 38 30 27 24 21 21 22 23 25 27 28 29 32 37 42 45 46 48 49 46 43 36
96 100 101 101 100 101 102 102 103 103 101 102 102 97 95 99 94 75 57 48 40 31 25 21 20 21 21 23 25 28 29 30 34 40 45 46 48 50 50 47 43 36
99 100 100 100 101 101 102 102 103 103 100 102 103 98 97 99 89 69 53 47 40 29 20 18 19 20 20 22 26 29 31 33 38 44 48 49 50 52 51 47 45 37
85 87 94 99 101 100 101 102 103 102 101 102 102 99 99 97 85 69 55 48 40 25 16 17 19 19 20 23 27 32 35 38 43 49 52 53 54 55 53 48 46 39
69 77 92 101 102 100 101 102 102 101 101 101 101 101 101 92 83 77 67 54 40 22 14 18 19 19 22 25 29 37 43 45 50 54 54 55 56 57 55 49 47 42
72 83 96 102 101 101 100 100 101 100 100 101 101 102 100 88 83 83 75 61 40 19 15 19 19 20 24 27 33 43 50 52 57 59 58 57 58 59 56 50 49 45
84 93 98 100 100 101 100 99 100 100 100 101 101 102 98 88 86 85 77 65 42 19 18 22 21 24 26 28 37 49 56 59 61 63 62 61 61 60 57 53 50 48
95 100 99 98 98 99 100 100 100 101 101 101 101 102 98 91 89 85 77 69 49 27 25 27 25 27 28 30 42 54 61 64 65 65 64 63 63 63 59 55 53 50
100 101 100 100 99 99 101 100 99 100 101 101 101 101 100 97 93 85 77 71 57 41 35 34 32 32 31 34 48 61 66 69 69 67 65 64 64 64 61 57 55 53
102 100 100 101 99 99 98 89 88 98 102 100 101 101 101 101 97 88 80 72 65 57 48 42 39 36 35 43 56 67 73 76 74 70 66 64 66 66 63 60 56 54
100 102 102 102 101 100 94 82 83 97 102 99 101 101 101 101 96 92 89 81 76 71 59 49 45 39 39 50 64 75 82 83 78 73 68 65 68 68 65 62 58 55
76 87 95 97 96 95 92 91 95 101 101 100 100 100 102 99 92 91 92 88 88 86 70 55 49 46 45 55 71 83 89 89 82 75 70 67 69 70 67 65 61 56
56 69 79 83 88 93 95 96 93 88 93 101 100 100 102 96 88 89 89 88 95 99 86 68 57 53 54 61 75 88 92 92 86 76 71 70 70 72 70 69 65 57
45 54 62 69 82 93 96 96 90 83 88 98 101 100 101 97 88 86 88 91 99 103 98 86 68 60 63 68 78 92 95 94 89 79 73 71 71 75 74 72 67 58
31 38 46 56 73 85 89 94 98 94 87 93 103 102 99 99 92 87 91 97 101 100 101 97 77 69 78 80 81 94 100 97 91 83 77 71 70 76 77 74 69 59
23 27 32 41 59 76 87 93 98 98 90 90 101 105 101 100 94 91 94 98 98 97 101 98 82 80 95 92 84 93 101 99 94 87 80 73 69 74 77 75 72 60
21 21 21 27 41 59 80 92 93 96 96 93 96 100 102 104 99 95 94 92 93 95 97 94 83 86 102 98 86 93 100 99 98 92 84 76 69 71 75 76 74 63
21 21 17 22 31 39 59 82 91 93 96 97 94 89 94 104 104 99 97 93 90 91 90 86 80 82 93 94 89 95 101 99 99 97 89 79 71 70 74 76 76 65
21 22 18 18 21 24 35 58 80 91 95 98 97 90 93 105 108 103 101 95 88 87 85 81 80 77 78 85 93 99 101 99 99 99 94 84 75 71 74 78 77 68
22 22 21 17 16 19 23 33 55 81 94 98 100 97 96 104 106 103 104 95 82 82 83 81 85 84 79 86 98 102 100 99 100 100 97 90 80 74 76 79 79 72
26 22 22 19 16 17 20 23 35 60 82 93 99 100 98 100 100 101 106 94 73 74 84 84 90 93 85 86 98 101 99 99 100 100 98 94 86 78 78 80 80 76
31 29 26 22 18 17 19 22 25 38 56 72 83 91 94 98 102 104 102 82 59 65 84 91 98 103 91 84 96 103 100 98 101 102 98 95 90 83 79 79 81 79
40 38 33 24 19 18 19 21 21 25 36 47 61 81 94 98 100 100 92 69 50 56 74 88 103 108 91 83 95 104 100 98 102 103 98 93 90 86 82 79 80 80
60 48 40 28 19 17 18 20 20 22 28 32 41 68 93 100 91 79 67 54 43 43 55 79 106 110 93 87 97 102 101 99 101 103 99 92 90 89 85 81 81 81
78 56 43 31 22 19 19 21 21 21 26 27 25 37 63 80 74 55 41 35 31 31 38 59 90 103 97 96 100 101 101 100 99 103 101 93 91 92 87 83 82 82
Wind_Speed
64 63 62 61 59 59 58 56 53 52 52 52 53 55 56 54 50 48 48 48 48 48 49 50 51 53 55 56 57 59 60 62 63 64 64 65 66 68 68 69 70 71
66 64 62 60 58 57 55 52 50 50 51 52 54 55 56 53 49 48 49 48 48 48 49 49 50 52 53 54 56 58 60 61 63 63 64 65 66 67 67 68 69 70
61 60 58 57 55 53 51 49 49 49 50 52 54 56 55 52 48 48 48 48 48 48 48 48 49 50 52 53 55 57 59 61 62 63 63 64 65 66 66 67 68 70
53 52 51 51 50 48 48 48 49 49 51 53 54 55 54 49 47 48 48 48 48 48 47 47 47 49 51 52 55 56 58 60 61 62 63 64 65 65 65 66 67 69
49 48 48 47 46 46 47 47 48 50 51 52 53 53 51 47 46 46 47 47 48 47 46 45 46 48 50 51 54 55 57 59 60 61 62 63 64 64 64 65 66 68
47 46 46 45 44 44 45 46 48 50 51 51 51 50 48 46 45 45 46 46 47 46 45 44 45 47 49 51 53 54 56 58 59 60 61 62 63 63 63 64 66 67
45 44 43 42 41 43 45 47 48 50 51 50 48 47 46 45 44 44 46 45 45 45 44 43 44 46 48 50 51 53 55 57 58 59 60 61 61 62 62 63 65 66
43 42 40 39 41 44 46 47 47 48 49 48 46 45 45 44 44 44 45 45 44 44 43 43 44 45 47 49 50 52 53 55 57 58 59 60 60 60 61 62 63 65
43 41 39 38 41 44 45 45 45 47 48 46 44 44 44 44 44 44 46 45 44 44 43 43 43 45 46 48 49 51 52 54 56 57 58 59 59 59 60 61 62 64
43 42 41 41 41 42 43 43 43 46 47 46 45 45 44 44 43 45 46 45 44 44 44 43 43 44 46 47 49 50 51 53 54 56 57 58 58 58 58 59 61 63
45 45 45 44 43 43 42 42 43 46 47 47 46 45 44 43 43 44 45 45 45 44 45 44 43 43 45 46 48 49 50 52 53 55 57 58 57 57 58 59 60 62
47 47 47 46 45 43 42 42 44 46 47 47 46 45 44 43 42 42 44 45 46 45 45 44 43 43 44 45 47 49 49 51 52 54 56 57 57 57 57 58 60 62
45 46 46 47 46 44 43 44 45 46 47 47 46 45 44 43 41 41 44 45 45 46 47 45 43 43 44 45 46 48 49 50 51 54 55 56 56 56 57 58 59 61
42 43 43 44 44 43 43 44 45 46 47 46 45 45 45 43 42 42 44 45 45 47 48 46 44 44 44 44 46 47 48 49 51 53 54 55 55 55 56 57 58 60
40 40 40 41 41 41 40 42 44 46 47 46 45 46 45 43 43 43 44 44 45 47 48 47 45 44 44 45 45 46 48 48 50 52 53 54 54 55 55 56 58 60
41 40 40 40 41 39 38 40 41 43 46 46 45 46 45 43 43 43 42 43 45 48 48 47 45 45 46 47 46 46 47 47 49 52 53 53 54 54 55 56 57 59
42 41 40 40 41 40 39 40 40 40 44 47 47 47 45 42 42 42 41 42 44 47 48 48 46 45 48 50 49 46 46 46 48 51 52 53 53 54 54 55 56 58
43 42 40 40 40 40 40 41 40 39 41 44 47 48 45 42 42 43 43 43 44 46 47 47 45 43 46 50 49 46 45 46 48 50 52 52 53 53 54 54 55 57
45 44 42 40 40 40 40 40 40 39 38 40 44 47 47 44 42 44 44 43 45 47 47 46 43 42 44 47 47 46 46 46 47 50 51 52 52 53 54 53 54 55
46 45 43 41 40 40 40 41 41 39 38 38 40 43 45 42 42 44 44 44 47 48 47 45 43 43 44 44 45 47 47 46 48 50 51 52 52 53 53 53 53 54
45 44 43 42 40 39 39 41 42 41 40 39 39 40 41 41 41 45 46 47 49 48 46 44 44 44 45 43 44 48 48 46 48 51 51 52 52 53 53 52 52 53
46 44 43 41 40 39 38 39 41 41 41 41 41 41 42 42 43 46 47 48 48 46 44 44 44 45 45 43 44 47 48 47 48 51 52 52 52 53 53 52 51 52
46 45 43 41 40 39 37 37 39 40 40 40 41 42 43 42 43 45 46 46 46 44 42 42 44 46 45 43 44 48 49 49 49 50 51 52 51 52 52 51 51 52
46 45 44 41 39 38 37 37 38 39 39 39 39 41 42 42 42 42 43 44 43 43 40 38 41 46 46 43 44 48 49 50 50 49 49 51 52 51 52 51 51 51
46 45 43 42 40 38 37 37 38 39 40 39 38 39 41 41 40 39 40 41 41 41 40 37 38 45 46 42 44 49 50 50 50 48 48 51 51 51 51 51 50 51
46 44 43 42 41 39 37 37 37 39 41 40 38 38 39 39 38 37 37 38 38 39 39 37 38 42 43 42 45 49 50 49 48 47 47 50 51 50 50 50 50 50
Wind_Direction
302 303 303 303 303 302 299 295 292 292 293 295 297 300 303 303 302 305 309 313 316 317 318 320 321 322 324 325 327 329 331 332 333 334 336 337 338 339 339 340 340 341
301 301 301 301 301 299 295 292 291 291 293 295 297 299 301 301 301 305 309 312 315 316 317 319 321 322 324 326 328 330 332 333 334 335 337 338 339 340 340 341 341 342
302 302 301 300 298 296 293 292 291 292 294 296 296 298 300 299 301 306 309 311 314 315 316 318 321 323 325 327 329 331 332 333 334 336 337 338 340 340 341 342 342 343
305 305 303 302 300 297 295 293 293 294 296 295 295 297 298 299 302 307 309 311 313 314 315 318 321 323 326 328 330 332 333 334 334 336 338 338 340 341 341 342 343 343
307 306 306 306 303 300 298 296 296 296 295 294 294 296 297 299 303 307 309 311 312 313 314 318 321 324 327 329 331 332 333 334 335 337 338 339 340 341 341 343 344 344
307 306 307 306 304 303 301 299 298 296 295 293 293 295 297 300 304 307 309 310 312 313 314 319 323 325 329 331 332 333 333 334 335 337 338 338 339 340 341 343 344 344
307 307 308 305 303 303 303 301 300 296 293 292 292 295 298 301 304 307 309 311 312 313 314 319 324 326 329 331 332 333 333 334 335 336 337 338 339 340 341 343 344 345
307 307 307 303 300 302 303 302 298 292 290 290 292 296 300 303 306 308 310 312 312 312 315 320 324 327 330 332 332 333 333 334 335 336 337 338 339 340 341 343 344 344
306 304 303 299 297 300 302 300 295 290 289 290 293 298 303 305 308 309 311 313 313 313 316 320 324 327 330 332 332 333 333 334 335 336 337 337 338 340 341 342 344 344
303 300 299 297 297 300 301 300 295 290 289 291 294 300 305 307 308 310 312 314 314 315 316 320 324 328 330 332 332 333 333 334 335 336 337 337 337 339 341 342 344 345
302 300 299 298 299 300 301 301 297 292 291 292 295 301 306 307 308 310 313 315 315 316 317 320 325 328 330 331 332 333 333 334 335 336 336 337 337 339 340 342 344 345
303 301 300 299 299 298 299 299 294 291 292 294 296 301 305 307 308 310 313 316 316 317 318 321 326 329 330 331 331 332 333 334 335 336 336 336 337 338 340 342 344 345
304 303 301 300 299 297 296 296 294 292 293 294 296 301 304 305 307 310 314 316 316 318 320 321 325 329 329 330 331 331 333 334 335 336 336 336 338 339 340 342 343 345
308 307 305 302 300 297 296 296 294 291 292 294 295 299 302 304 306 311 314 315 316 318 320 321 324 328 329 330 331 331 333 334 335 336 336 336 338 340 341 343 343 344
312 311 310 307 303 299 297 297 294 290 291 292 294 297 300 303 307 310 312 314 316 317 318 320 322 327 330 331 331 332 333 334 335 335 335 337 339 340 342 343 343 343
315 315 314 310 306 302 299 297 293 290 291 291 291 296 299 302 307 309 310 312 313 312 314 316 319 325 330 331 331 331 332 333 334 334 335 337 339 341 342 342 342 342
315 317 317 314 310 305 301 298 293 288 290 292 292 294 298 301 305 307 308 309 308 307 310 313 316 322 325 326 328 330 330 332 332 333 334 336 339 341 342 342 342 342
310 313 317 317 313 308 302 298 295 289 287 289 292 293 294 298 302 303 304 305 303 303 307 310 314 320 321 319 324 329 329 330 331 331 333 335 338 341 342 342 342 341
305 308 311 313 313 311 305 298 295 293 288 286 289 292 292 294 297 299 301 303 301 301 304 308 313 317 316 316 322 328 329 329 329 329 331 333 336 340 342 342 342 341
302 303 306 307 309 312 310 301 294 291 291 287 287 289 289 289 291 295 297 299 299 299 302 307 311 313 313 317 322 325 327 328 329 328 329 332 335 339 341 342 341 340
299 300 302 304 305 308 310 307 298 290 289 287 285 288 289 287 288 291 294 296 297 297 300 305 309 311 314 317 319 320 323 326 326 327 328 330 333 337 340 341 341 340
296 298 300 301 302 304 307 308 303 295 289 286 284 284 286 287 289 290 293 295 295 295 298 303 306 309 312 314 314 315 319 322 323 325 327 329 332 335 338 340 341 339
294 296 297 298 299 300 303 305 303 298 292 288 285 283 283 286 288 290 292 295 293 292 295 300 303 305 308 311 312 312 315 318 319 322 326 329 330 333 337 339 340 339
291 293 295 296 295 296 299 302 303 301 295 289 286 284 282 283 285 287 290 293 292 291 292 295 299 301 303 308 310 309 311 314 315 319 325 328 329 332 335 338 339 338
289 290 292 293 293 293 295 297 300 301 297 292 287 284 282 282 284 286 288 290 291 290 290 291 294 297 300 306 309 307 308 311 313 317 323 327 328 331 334 336 338 337
288 288 289 290 289 290 292 293 295 297 297 294 289 285 283 282 283 285 287 287 289 291 291 290 289 291 296 303 305 304 306 309 311 315 321 324 327 329 332 335 337 336